CW2654 Weather Reports


Display with metric or nautical units.
time (UTC)temp
F
wind
direction
speed
MPH
gust
MPH
rain 1hr
in
rain 24hr
in
rain mn
in
humidity
%
barometer
mb
20200330081020 47 72 2.0 8.0 0.00 0.00 0.00 2 1009.2
20200330080020 47 79 8.0 9.0 0.00 0.00 0.00 6 1009.5
20200330075020 47 71 4.0 10.0 0.00 0.00 0.00 10 1009.7
20200330074021 47 84 4.0 13.0 0.00 0.00 0.00 7 1009.9
20200330073020 47 92 4.0 15.0 0.00 0.00 0.00 3 1010.0
20200330072020 47 63 9.0 14.0 0.00 0.00 0.00 1 1010.1
20200330071020 47 57 7.0 14.0 0.00 0.00 0.00 1 1010.2
20200330070021 47 78 9.0 14.0 0.00 0.00 0.00 1 1010.4
20200330065020 47 80 7.0 12.0 0.00 0.00 0.00 1 1010.5
20200330064020 47 69 6.0 15.0 0.00 0.00 0.00 1 1010.8
20200330063019 46 46 6.0 12.0 0.00 0.00 0.00 1 1011.1
20200330062020 46 59 7.0 12.0 0.00 0.00 0.00 1 1011.2
20200330061020 46 75 8.0 12.0 0.00 0.00 0.00 1 1011.4
20200330060020 46 61 5.0 11.0 0.00 0.00 0.00 1 1011.5
20200330055021 47 68 9.0 17.0 0.00 0.00 0.00 1 1011.4
20200330054021 47 96 4.0 12.0 0.00 0.00 0.00 1 1011.6
20200330053021 47 90 16.0 17.0 0.00 0.00 0.00 1 1011.7
20200330052020 47 65 3.0 8.0 0.00 0.00 0.00 1 1011.8
20200330051020 47 57 6.0 9.0 0.00 0.00 0.00 1 1011.8
20200330050019 47 63 0.0 12.0 0.00 0.00 0.00 1 1011.8
20200330045019 48 96 6.0 9.0 0.00 0.00 0.00 1 1011.9
20200330044020 48 63 8.0 11.0 0.00 0.00 0.00 1 1011.8
20200330043019 48 116 1.0 9.0 0.00 0.00 0.00 1 1011.9
20200330042022 48 70 2.0 13.0 0.00 0.00 0.00 1 1011.8
20200330041020 49 51 6.0 11.0 0.00 0.00 0.00 9 1011.8
20200330040021 49 84 3.0 7.0 0.00 0.00 0.00 11 1011.6
20200330035021 49 47 1.0 7.0 0.00 0.00 0.00 11 1011.7
20200330034019 49 190 3.0 8.0 0.00 0.00 0.00 12 1011.7
20200330033024 49 67 2.0 5.0 0.00 0.00 0.00 18 1011.6
20200330032021 49 92 4.0 11.0 0.00 0.00 0.00 22 1011.7
20200330031020 49 85 1.0 10.0 0.00 0.00 0.00 24 1011.7
20200330030020 49 70 4.0 10.0 0.00 0.00 0.00 27 1011.7
20200330025019 49 63 4.0 9.0 0.00 0.00 0.00 31 1011.6
20200330024019 49 84 8.0 10.0 0.00 0.00 0.00 30 1011.6
20200330023019 49 84 7.0 12.0 0.00 0.00 0.00 32 1011.7
20200330022021 50 63 8.0 10.0 0.00 0.00 0.00 31 1011.7
20200330021021 50 82 5.0 10.0 0.00 0.00 0.00 24 1011.8
20200330020019 50 89 8.0 10.0 0.00 0.00 0.00 27 1011.8
20200330015019 50 76 5.0 10.0 0.00 0.00 0.00 31 1011.9
20200330014019 50 62 2.0 8.0 0.00 0.00 0.00 32 1011.9
20200330013020 51 105 4.0 7.0 0.00 0.00 0.00 38 1012.0
20200330012021 51 68 3.0 7.0 0.00 0.00 0.00 44 1012.0
20200330011019 51 83 4.0 7.0 0.00 0.00 0.00 50 1012.1
20200330010020 52 80 2.0 7.0 0.00 0.00 0.00 57 1012.3
20200330005019 52 82 2.0 6.0 0.00 0.00 0.00 61 1012.2
20200330004019 52 170 5.0 9.0 0.00 0.00 0.00 65 1012.2
20200330003019 53 211 0.0 9.0 0.00 0.00 0.00 66 1012.5
20200330002019 52 319 2.0 6.0 0.00 0.00 0.00 60 1012.5
20200330001020 52 150 8.0 10.0 0.00 0.00 0.00 66 1012.6
20200330000019 52 233 3.0 13.0 0.00 0.00 0.00 63 1012.6
20200329235019 52 240 5.0 14.0 0.00 0.00 0.00 65 1012.8
20200329234019 52 219 4.0 11.0 0.00 0.00 0.00 67 1012.7
20200329233019 53 117 7.0 13.0 0.00 0.00 0.00 67 1012.9
20200329232019 53 202 3.0 8.0 0.00 0.00 0.00 67 1012.8
20200329231019 53 239 2.0 14.0 0.00 0.00 0.00 67 1012.9
20200329230021 53 53 3.0 10.0 0.00 0.00 0.00 64 1012.9
20200329225019 53 112 2.0 9.0 0.00 0.00 0.00 67 1013.0
20200329224019 53 234 5.0 15.0 0.00 0.00 0.00 63 1013.1
20200329223019 54 252 4.0 19.0 0.00 0.00 0.00 65 1013.1
20200329222019 53 322 3.0 16.0 0.00 0.00 0.00 64 1013.2
20200329221019 53 192 2.0 21.0 0.00 0.00 0.00 67 1013.3
20200329220019 53 308 5.0 15.0 0.00 0.00 0.00 51 1013.3
20200329215019 52 117 6.0 13.0 0.00 0.00 0.00 61 1013.3
20200329214019 52 207 11.0 15.0 0.00 0.00 0.00 61 1013.5
20200329213019 52 50 3.0 11.0 0.00 0.00 0.00 56 1013.5
20200329212021 51 216 2.0 8.0 0.00 0.00 0.00 51 1013.5
20200329211019 51 136 2.0 10.0 0.00 0.00 0.00 40 1013.8
20200329210020 51 146 9.0 9.0 0.00 0.00 0.00 33 1013.9
20200329205020 51 53 2.0 6.0 0.00 0.00 0.00 22 1013.9
20200329204019 50 163 2.0 11.0 0.00 0.00 0.00 1 1013.9
20200329203019 50 74 0.0 4.0 0.00 0.00 0.00 1 1014.0
20200329202019 50 95 3.0 10.0 0.00 0.00 0.00 1 1014.0
20200329201019 50 68 9.0 9.0 0.00 0.00 0.00 1 1014.1
20200329200019 50 144 0.0 8.0 0.00 0.00 0.00 1 1014.2
20200329195019 49 109 4.0 12.0 0.00 0.00 0.00 1 1014.2
20200329194019 49 149 2.0 10.0 0.00 0.00 0.00 1 1014.3
20200329193019 48 76 4.0 8.0 0.00 0.00 0.00 1 1014.3
20200329192019 48 149 2.0 8.0 0.00 0.00 0.00 1 1014.3
20200329191019 47 181 3.0 10.0 0.00 0.00 0.00 1 1014.4
20200329190019 47 75 4.0 8.0 0.00 0.00 0.00 1 1014.4
20200329185020 47 84 3.0 9.0 0.00 0.00 0.00 1 1014.2
20200329184019 47 269 1.0 5.0 0.00 0.00 0.00 1 1014.3
20200329183019 46 132 0.0 12.0 0.00 0.00 0.00 1 1014.2
20200329182019 46 251 0.0 10.0 0.00 0.00 0.00 1 1014.3
20200329181019 46 109 1.0 7.0 0.00 0.00 0.00 1 1014.3
20200329180018 46 96 2.0 7.0 0.00 0.00 0.00 1 1014.2
20200329175019 46 117 4.0 9.0 0.00 0.00 0.00 1 1014.3
20200329174019 46 102 0.0 9.0 0.00 0.00 0.00 1 1014.1
20200329173019 46 51 1.0 8.0 0.00 0.00 0.00 1 1014.0
20200329172018 46 44 6.0 11.0 0.00 0.00 0.00 1 1014.0
20200329171019 46 71 8.0 13.0 0.00 0.00 0.00 1 1013.9
20200329170019 46 69 2.0 12.0 0.00 0.00 0.00 1 1013.8
20200329165019 46 82 7.0 13.0 0.00 0.00 0.00 1 1013.9
20200329164019 45 78 3.0 12.0 0.00 0.00 0.00 1 1013.8
20200329163019 45 78 5.0 11.0 0.00 0.00 0.00 1 1013.8
20200329161019 45 79 5.0 11.0 0.00 0.00 0.00 1 1013.7
20200329160018 45 68 8.0 12.0 0.00 0.00 0.00 1 1013.7
20200329155019 45 69 6.0 10.0 0.00 0.00 0.00 1 1013.7
20200329154019 44 86 5.0 10.0 0.00 0.00 0.00 1 1013.7
20200329153019 44 72 8.0 11.0 0.00 0.00 0.00 1 1013.8
20200329152018 45 76 8.0 11.0 0.00 0.00 0.00 1 1013.7
20200329151019 45 84 3.0 10.0 0.00 0.00 0.00 1 1013.8
20200329150019 45 71 3.0 9.0 0.00 0.00 0.00 1 1013.8
20200329145019 45 78 4.0 12.0 0.00 0.00 0.00 1 1013.7
20200329144019 45 123 8.0 11.0 0.00 0.00 0.00 1 1013.6
20200329143019 45 72 8.0 11.0 0.00 0.00 0.00 1 1013.5
20200329142018 45 80 7.0 9.0 0.00 0.00 0.00 1 1013.5
20200329141019 45 84 7.0 10.0 0.00 0.00 0.00 1 1013.5
20200329140019 45 132 0.0 10.0 0.00 0.00 0.00 1 1013.5
20200329135019 45 72 1.0 12.0 0.00 0.00 0.00 1 1013.5
20200329134019 45 78 2.0 9.0 0.00 0.00 0.00 1 1013.4
20200329133018 45 41 1.0 10.0 0.00 0.00 0.00 1 1013.3
20200329132018 45 140 1.0 11.0 0.00 0.00 0.00 1 1013.1
20200329131019 45 73 1.0 9.0 0.00 0.00 0.00 1 1013.2
20200329130018 45 111 6.0 13.0 0.00 0.00 0.00 1 1013.2
20200329125019 45 48 2.0 14.0 0.00 0.00 0.00 1 1013.3
20200329124019 45 48 4.0 11.0 0.00 0.00 0.00 1 1013.3
20200329123018 45 51 2.0 14.0 0.00 0.00 0.00 1 1013.4
20200329122018 45 84 8.0 10.0 0.00 0.00 0.00 1 1013.4
20200329121018 45 74 4.0 11.0 0.00 0.00 0.00 1 1013.4
20200329120018 45 53 0.0 11.0 0.00 0.00 0.00 1 1013.4
20200329115018 45 61 8.0 12.0 0.00 0.00 0.00 1 1013.2
20200329114018 45 87 4.0 10.0 0.00 0.00 0.00 1 1013.3
20200329113018 45 78 7.0 11.0 0.00 0.00 0.00 1 1013.2
20200329112018 45 77 7.0 10.0 0.00 0.00 0.00 1 1013.2
20200329111018 45 82 8.0 11.0 0.00 0.00 0.00 1 1013.2
20200329110019 45 88 4.0 11.0 0.00 0.00 0.00 1 1013.2
20200329105018 45 78 7.0 11.0 0.00 0.00 0.00 1 1013.3
20200329104019 45 62 5.0 12.0 0.00 0.00 0.00 1 1013.3
20200329103018 45 73 5.0 13.0 0.00 0.00 0.00 1 1013.4
20200329102019 45 80 10.0 12.0 0.00 0.00 0.00 1 1013.4
20200329101018 46 98 7.0 11.0 0.00 0.00 0.00 1 1013.6
20200329100019 46 78 10.0 13.0 0.00 0.00 0.00 1 1013.6
20200329095018 46 101 6.0 11.0 0.00 0.00 0.00 1 1013.7
20200329094019 46 66 6.0 12.0 0.00 0.00 0.00 1 1013.7
20200329093018 46 65 13.0 14.0 0.00 0.00 0.00 1 1013.7
20200329092019 46 62 5.0 13.0 0.00 0.00 0.00 1 1013.8
20200329091018 46 69 10.0 10.0 0.00 0.00 0.00 1 1013.9
20200329090018 46 76 9.0 14.0 0.00 0.00 0.00 1 1014.0
20200329085018 46 88 10.0 11.0 0.00 0.00 0.00 1 1014.0
20200329084018 46 96 9.0 13.0 0.00 0.00 0.00 1 1014.1
20200329083018 46 62 4.0 14.0 0.00 0.00 0.00 1 1014.2
20200329082018 45 102 9.0 14.0 0.00 0.00 0.00 1 1014.3